Weather in Dmitriyevka

Russia / Orenburg Oblast     52°00′21″N   55°31′14″E
В апреле 2022 года жителям России запретили посещать сайт meteo.paraplan.net по решению Генеральной прокуратуры. Аудитория сайта уменьшилась в 10 раз. Владельцы сайта не видят смысла в поддержке погодного сервера в таких условиях. Сайт будет закрыт в октябре.
temp.,
°C
wind,
m/s
gust,
m/s
humid.,
%
clouds,
%
prec.,
mm/h
press.,
hPa
HPBL,
m
29 september, thu
thu2923:00+10ese51075100 0.2 1019513
02:00+9ese71173100 0.2 1019480
05:00+9ese71372100 0.4 1018538
08:00+8se81457100 0.0 1018612
11:00+9se81349100 0.2 1017740
14:00+6se81385100 4.5 1018623
17:00+6se81487100 8.9 1018572
20:00+6ese91591100 8.3 1017478
30 september, fri
fri3023:00+8se91882100 9.1 1017482
02:00+9se8157094 0.8 1017443
05:00+10se71368100 0.8 1018403
08:00+10se61264100 0.1 1019419
11:00+11se61055100 0.1 1020555
14:00+13se7947100 0.0 1022627
17:00+9e81262100 0.1 1022322
20:00+8ese81462100 0.0 1024344
1 october, sat
sat123:00+8ese81457100 0.0 1024412
02:00+8ese81451100 0.0 1025418
05:00+8ese71347100 0.0 1025425
08:00+8ese71347100 0.0 1026430
11:00+10se71240100 0.0 1027503
14:00+15se792860 0.0 10251010
17:00+15se6103294 0.0 1025552
20:00+13se81433100 0.0 1025389
2 october, sun
sun223:00+12se61234100 0.0 1025374
02:00+11se51038100 0.0 1025319
05:00+11se5104296 0.0 1024281
08:00+11se61141100 0.0 1024313
11:00+13sse61038100 0.0 1024481
14:00+16sse693996 0.0 1023665
17:00+15se4943100 0.0 1022358
20:00+13se4104565 0.0 1022166
3 october, mon
mon323:00+13sse6144344 0.0 1021286
02:00+14sse6133891 0.0 1021437
05:00+13s51142100 0.0 1021377
08:00+11se5113167 0.0 1025322
11:00+15sse682110 0.0 1026659
14:00+17s66195 0.0 10251141
17:00+17s45215 0.0 10251231
20:00+12se46345 0.0 102794